Location: Unspecified
(0.0000°N, 0.0000°E)
Time: 15:54:01
(UTC+00:00)

FENGYUN 1C DEB - Pass Details

Date: 15 February 2026
Orbit: 814 x 927 km, 98.2° (Epoch: 15 July)

Event Time Altitude Azimuth Distance (km) Brightness Sun altitude
Rises 20:06:05 0° 193° (SSW) 3,384 ? -27.3°
Reaches altitude 10° 20:08:53 10° 207° (SSW) 2,459 ? -28.0°
Maximum altitude 20:13:06 23° 258° (WSW) 1,723 ? -29.0°
Drops below altitude 10° 20:17:23 10° 309° (NW) 2,490 ? -30.0°
Sets 20:20:15 0° 323° (NW) 3,436 ? -30.7°
